Theta_e
292 290 288 289 289 289 287 283 283 285 287 286 286 288 291 291 285 285 283 282 283 283 282 283 282 282 281 281 282 283 283 284 283 282 281 280 280 280 280 281 283 283 283 283
290 288 291 291 289 287 284 283 283 285 286 286 285 285 289 291 288 287 287 284 283 283 281 282 281 280 281 282 282 282 282 283 283 282 281 281 279 279 280 281 280 281 282 282
288 290 292 290 286 285 283 282 282 283 284 283 281 282 282 286 288 288 287 287 285 283 281 281 281 280 280 280 281 282 282 282 282 282 281 280 279 278 277 277 278 279 281 281
289 290 289 286 286 286 282 285 283 282 280 277 282 279 280 285 286 285 286 284 284 283 282 282 281 279 279 280 280 281 281 281 282 281 279 277 276 275 276 276 277 278 279 279
289 286 286 285 287 287 285 283 282 281 279 276 277 275 278 279 282 287 287 286 284 282 282 281 281 281 280 281 280 280 280 280 281 280 278 276 276 276 276 276 276 276 277 279
288 287 287 287 285 285 285 282 280 277 276 272 278 277 277 278 282 284 284 283 283 280 281 281 281 281 281 280 279 279 279 279 279 279 277 276 274 274 274 274 274 275 276 277
286 285 284 287 284 285 283 282 277 274 271 276 275 273 282 283 284 285 285 282 281 279 279 279 280 280 280 279 279 279 278 277 278 277 276 275 274 273 273 273 274 273 274 275
283 283 285 286 286 285 281 282 278 270 270 277 273 275 282 284 284 280 279 279 280 278 279 280 280 280 279 279 278 278 277 276 276 275 274 274 273 273 273 273 273 273 273 274
283 283 284 285 284 285 281 279 282 276 264 268 278 279 282 284 282 280 279 280 279 278 279 279 280 280 278 278 278 277 276 276 275 274 273 272 272 271 271 271 272 272 273 274
288 284 282 281 282 280 280 282 277 277 271 265 275 277 280 285 283 284 278 278 278 277 278 279 279 279 278 277 277 276 275 274 274 273 272 272 271 271 271 271 271 271 272 273
288 287 282 280 280 279 277 278 277 279 276 272 268 280 283 285 286 286 281 280 278 278 278 279 279 278 278 277 276 274 273 273 272 272 271 270 270 270 270 270 270 271 271 272
287 285 282 283 278 278 280 280 281 278 275 273 273 280 283 285 286 283 281 280 278 278 278 279 278 277 276 275 275 273 272 271 271 271 270 269 269 269 269 269 269 271 270 271
287 283 280 281 279 279 277 280 280 280 277 275 274 280 282 282 281 279 280 279 277 277 276 277 277 276 275 275 273 272 271 270 270 269 268 268 268 268 268 268 269 269 269 269
293 285 282 281 282 281 277 279 280 282 278 280 280 283 288 289 290 291 285 278 278 277 277 277 277 276 275 274 272 270 269 269 268 268 267 267 267 268 267 268 268 268 268 267
288 284 285 286 287 280 280 281 281 278 281 279 283 283 287 289 290 292 292 286 278 276 276 277 277 275 273 272 271 269 268 267 267 267 266 266 267 267 267 267 267 267 267 266
283 283 285 283 285 283 281 285 285 280 281 281 283 283 291 293 294 292 292 286 279 276 277 277 277 276 274 273 270 271 267 267 267 265 266 266 266 266 265 265 265 265 265 265
279 280 274 279 281 279 277 282 285 287 287 284 280 285 290 290 290 290 290 282 280 278 277 277 276 275 274 272 271 266 266 266 266 266 265 264 264 263 263 263 263 263 262 263
280 279 282 280 274 273 285 289 286 285 287 289 288 290 291 291 292 282 285 283 279 278 277 277 275 272 270 268 267 266 267 266 266 265 263 263 263 261 261 261 260 261 262 263
288 283 280 278 278 282 284 284 281 280 284 289 286 289 290 291 280 286 280 281 281 278 278 276 273 269 268 266 266 265 265 265 264 262 262 262 261 259 259 257 259 260 261 261
287 287 284 281 276 274 283 288 282 282 280 291 290 289 288 281 280 287 280 277 276 276 274 270 269 268 266 265 266 265 264 263 261 261 261 261 260 257 257 258 258 260 259 261
279 281 279 280 279 282 288 278 282 277 283 287 291 290 289 282 287 280 276 274 274 272 270 268 267 266 265 265 264 263 262 261 261 260 259 259 258 257 257 258 259 258 259 261
282 279 279 279 278 277 286 279 282 289 293 290 284 284 284 285 277 275 274 272 270 268 269 267 265 264 264 264 264 262 261 260 260 258 257 255 254 255 258 256 257 258 259 259
283 286 285 285 283 288 287 292 292 294 293 289 283 282 284 279 277 274 272 271 270 269 268 267 265 263 263 263 262 262 259 259 258 253 252 250 254 256 257 256 257 258 259 260
287 291 287 287 288 288 286 290 294 294 291 290 283 281 281 278 276 275 272 271 269 269 267 266 264 262 260 261 260 259 258 257 251 251 255 257 256 255 257 258 259 258 259 260
290 289 287 287 290 292 293 294 292 287 284 282 281 281 281 279 276 275 272 270 269 268 266 266 265 263 260 259 257 257 255 253 253 254 256 255 254 254 256 258 257 260 262 265
292 289 286 286 292 291 292 295 295 290 285 283 282 279 280 280 277 275 273 271 269 267 265 265 264 262 260 259 257 254 252 250 250 254 254 254 254 254 256 256 256 262 265 266
Wind_Speed
3 3 7 8 7 4 4 4 8 6 5 4 11 14 22 9 11 15 12 14 17 18 9 10 9 8 7 6 7 6 4 2 2 1 2 2 4 4 2 3 5 6 5 6
3 9 6 4 4 5 4 3 9 9 1 6 11 17 16 17 12 14 16 17 20 16 13 15 12 9 9 8 7 5 4 4 3 2 3 3 3 4 4 3 5 5 5 5
8 4 6 5 4 5 4 6 6 8 6 5 8 10 6 7 8 8 10 11 15 19 19 14 13 11 8 9 8 7 3 3 3 3 2 2 3 3 2 3 4 3 6 6
7 2 7 4 6 8 4 5 3 4 5 5 5 14 5 7 12 7 9 11 13 16 15 15 16 10 9 9 7 7 3 3 3 3 2 2 2 3 3 4 4 6 6 7
9 8 6 6 8 8 8 3 2 1 3 4 4 6 8 3 9 19 9 13 14 15 19 19 18 14 9 8 8 7 3 2 3 3 2 2 4 4 4 4 6 7 6 6
7 2 6 7 3 3 4 3 5 4 2 3 6 8 5 7 10 8 6 7 9 11 14 13 13 11 8 7 7 6 3 3 3 3 3 4 6 6 6 7 7 6 6 6
1 6 2 3 4 2 3 6 4 6 3 11 4 3 13 9 12 10 10 5 9 10 12 14 17 13 10 9 8 6 4 3 4 4 4 5 7 6 7 8 8 10 8 8
6 10 10 6 7 8 7 8 8 9 5 10 2 12 10 11 9 6 5 8 7 10 13 16 16 14 11 9 8 7 4 3 4 4 5 5 6 4 6 7 8 9 9 9
8 9 2 1 2 4 6 7 3 6 3 3 7 10 8 10 10 8 8 6 10 11 13 16 14 12 9 8 8 7 5 4 3 5 5 5 5 6 7 10 9 9 11 11
4 5 2 2 2 2 4 4 5 2 3 7 12 17 15 14 10 11 9 11 9 9 12 13 15 13 8 7 7 6 4 3 3 4 4 6 6 6 8 9 11 12 12 14
6 5 3 3 10 12 4 3 1 2 6 7 4 17 6 8 10 12 11 11 11 13 14 14 13 11 9 7 7 6 4 3 3 3 5 5 6 7 9 10 11 12 13 15
7 6 9 16 1 1 2 8 12 8 8 4 4 30 2 7 10 7 8 11 8 11 13 14 13 10 9 10 8 7 4 2 3 5 5 6 7 8 9 10 12 12 14 15
11 4 7 8 1 2 8 9 7 1 3 13 8 26 5 6 9 8 10 9 9 10 10 11 12 14 12 9 8 6 4 4 4 4 4 6 8 8 10 11 12 13 15 15
16 9 13 20 13 7 7 13 16 23 14 16 33 27 46 21 25 27 15 10 11 13 15 15 14 13 11 8 8 7 6 4 3 2 3 6 8 9 10 12 13 13 14 16
10 14 16 22 29 6 8 14 17 22 29 20 34 29 39 27 31 29 17 10 10 11 14 18 18 13 11 9 7 5 3 2 1 3 5 6 8 9 10 12 13 13 13 14
3 13 12 26 22 9 10 35 16 25 27 25 28 40 28 31 28 27 27 10 11 14 18 18 17 15 12 8 6 5 2 2 4 4 6 8 10 11 12 12 13 14 15 14
8 5 3 26 6 7 10 29 31 35 27 26 29 43 32 31 27 27 19 11 13 15 16 17 18 16 11 8 7 4 3 3 3 4 6 8 9 11 12 13 13 14 15 15
10 8 9 17 4 17 32 23 12 21 31 28 30 31 32 30 26 7 10 11 14 12 14 16 14 11 10 7 7 5 3 1 3 4 5 7 9 10 12 13 13 14 13 15
19 12 12 14 18 25 29 16 9 11 27 25 19 29 30 24 6 25 11 12 13 15 15 13 12 12 11 9 7 6 3 3 4 5 7 8 9 10 12 12 13 13 14 15
18 22 20 15 17 24 33 22 7 4 25 36 25 27 23 8 7 23 9 9 9 11 13 16 15 14 12 8 7 6 4 2 3 5 7 9 9 8 11 13 14 14 13 15
5 10 23 23 24 16 25 10 6 12 42 2 21 23 16 13 14 2 9 8 12 13 16 15 13 12 11 10 8 7 5 2 2 3 5 7 8 9 9 12 13 12 14 14
19 12 10 11 14 23 8 7 21 35 34 15 8 7 12 13 6 7 10 13 16 18 16 14 14 12 11 10 8 8 6 3 1 4 5 6 7 7 8 11 13 11 12 14
19 21 19 17 12 8 13 27 34 34 29 18 5 5 11 12 10 13 12 15 15 17 15 13 14 13 9 9 7 8 5 3 3 4 3 4 7 7 9 10 12 10 10 11
16 17 20 20 17 20 20 26 26 24 27 16 7 10 15 12 15 14 16 16 16 15 15 12 14 12 10 7 6 5 5 4 4 3 4 4 6 9 9 8 8 9 10 11
20 14 21 22 24 22 26 29 28 16 6 11 8 11 18 13 16 18 15 16 16 15 14 13 13 11 11 10 8 5 4 4 3 3 4 4 4 5 9 8 7 8 9 14
18 23 18 21 30 20 33 32 20 17 24 21 17 10 13 16 19 17 17 17 19 17 15 12 12 12 11 10 8 6 4 3 3 5 4 3 4 5 6 6 10 14 18 22
Wind_Direction
7 86 214 226 202 179 165 199 241 252 239 240 247 248 271 251 219 235 220 207 212 212 193 185 181 175 164 175 166 164 160 213 188 210 318 294 269 284 256 290 319 335 328 334
35 237 204 125 143 172 165 226 264 280 308 190 268 257 260 254 244 223 219 214 215 202 188 187 181 176 178 176 173 166 184 214 203 174 219 227 255 271 268 288 311 308 306 305
176 211 113 150 171 171 213 195 238 239 327 253 298 266 239 274 266 245 223 221 214 205 197 188 187 187 179 183 183 180 188 233 219 209 241 261 263 277 254 254 271 269 283 279
230 203 172 170 216 153 243 212 236 290 8 259 24 290 243 245 273 245 236 213 210 201 198 186 187 186 186 194 178 180 187 230 228 221 236 236 228 251 240 284 271 283 273 274
241 170 176 190 215 165 224 136 161 125 224 347 241 280 259 21 262 265 250 227 216 201 190 187 187 183 191 171 181 183 189 259 260 248 245 275 280 246 257 263 273 280 268 255
248 314 173 205 82 154 127 92 60 59 64 292 223 190 216 186 208 253 249 228 207 195 197 188 175 169 179 170 171 181 196 249 276 281 295 299 280 293 302 310 305 298 294 287
283 212 176 152 110 49 102 74 320 328 350 239 162 219 252 229 223 222 250 269 217 189 182 179 177 179 176 176 183 184 202 263 286 305 303 290 274 279 284 296 296 297 293 284
185 275 177 177 193 179 177 169 167 229 229 278 346 246 265 227 255 256 240 249 225 186 189 192 183 178 177 180 181 180 196 256 289 299 291 281 288 290 279 279 286 288 284 287
174 263 104 158 141 139 184 191 170 99 112 346 239 275 281 260 275 261 256 244 228 196 194 190 178 178 177 175 181 180 195 238 267 286 288 294 280 274 281 290 287 283 288 292
223 304 158 155 132 40 174 172 79 8 253 263 268 275 252 242 238 241 233 230 224 199 198 192 182 179 175 173 166 165 188 248 279 287 275 286 283 281 282 287 287 287 290 291
144 150 228 122 211 167 132 217 101 155 161 200 275 266 207 228 195 223 223 223 209 199 199 195 186 173 170 161 166 177 188 242 274 278 269 271 286 292 288 286 289 289 290 290
202 154 231 235 208 334 220 199 174 195 228 255 140 271 205 211 214 220 226 232 212 202 195 193 183 161 166 174 178 183 191 237 250 252 269 293 293 293 291 289 291 295 293 290
177 219 250 264 89 18 221 197 222 256 127 200 177 255 113 208 244 221 233 225 213 198 183 182 173 182 179 174 177 182 184 227 236 250 275 296 295 297 294 298 296 296 294 292
160 178 196 231 230 133 186 219 216 219 228 229 233 258 268 264 276 270 259 224 214 202 193 191 188 186 175 169 174 185 197 212 246 268 297 292 302 305 298 299 298 296 297 299
172 231 226 247 256 182 212 237 216 216 231 216 250 243 254 264 264 273 276 237 206 193 195 197 192 179 172 174 173 166 179 222 286 324 309 302 307 301 301 303 297 301 302 300
213 253 246 255 255 204 251 255 236 231 238 245 254 260 259 268 279 281 277 251 210 203 206 199 189 170 172 165 154 163 172 22 4 328 319 317 310 312 306 305 311 312 307 304
173 189 192 252 230 118 264 245 239 255 241 231 242 252 275 270 266 263 267 208 215 209 199 186 181 166 155 141 138 135 69 28 341 320 310 308 312 309 313 316 316 313 309 306
212 208 223 252 93 228 251 266 211 234 251 239 246 261 260 263 273 249 223 206 212 195 181 180 165 130 121 115 102 104 84 41 343 324 310 312 316 311 319 317 318 310 309 310
228 214 236 230 233 256 286 231 164 199 266 247 221 245 254 260 341 278 205 208 204 185 175 162 139 120 119 120 120 108 97 36 1 336 326 320 323 318 320 314 313 314 311 309
225 229 234 233 239 242 248 272 155 106 268 260 220 240 243 137 235 258 159 165 142 132 136 135 124 117 115 121 114 112 95 65 340 337 329 332 326 318 310 310 309 311 302 303
163 207 224 233 243 246 255 140 134 193 251 200 209 225 229 193 216 113 111 101 123 130 129 119 117 118 119 125 130 123 135 161 266 322 328 330 324 312 301 303 303 304 306 308
209 185 210 229 246 254 170 111 207 238 258 258 203 190 191 210 138 137 139 140 134 130 128 125 122 124 130 137 140 147 164 176 71 4 342 331 308 305 310 304 298 307 309 309
233 207 215 197 204 204 192 216 222 238 241 234 179 195 200 176 172 157 151 148 145 142 139 136 131 131 140 144 156 160 147 122 57 12 341 302 304 321 312 304 305 317 315 317
221 228 227 239 230 231 221 229 236 231 233 233 199 177 178 184 164 162 153 150 146 146 144 138 136 139 143 151 134 124 125 96 75 20 15 339 341 324 317 309 314 315 321 322
220 191 221 244 245 246 250 243 236 233 222 201 181 185 194 173 179 159 156 156 153 149 146 149 150 145 149 156 140 133 116 102 100 85 37 355 333 318 309 317 312 324 323 332
218 221 214 225 228 221 242 249 238 214 216 209 189 189 196 190 170 161 159 158 153 151 147 149 144 142 150 149 138 131 121 113 99 73 36 353 330 324 320 317 316 333 345 346